{"data":{"norad_id":37793,"intl_designator":"2011-044F","name":"APRIZESAT 6","alt_names":[],"object_type":"PAYLOAD","status":"ACTIVE","operator":null,"country":"US","launch_date":"2011-08-17","launch_site_code":"DLS","launch_vehicle":null,"mission":null,"orbit_class":"UNKNOWN","rcs_meters":0.1735,"size_class":null,"mass_kg":null,"dimensions":null,"purposes":["tech_demo"],"wikipedia_slug":null,"has_3d_model":false,"image_url":null,"decayed_at":null,"tle_current":{"epoch":"2026-05-25T04:44:21.992064Z","epoch_age_seconds":51912,"freshness":"FRESH","line1":"1 37793U 11044F   26145.19747676  .00000557  00000+0  85891-4 0  9995","line2":"2 37793  98.2378  55.2266 0043567 157.8312 359.1148 14.76877777793759","mean_motion":14.76877777,"eccentricity":0.0043567,"inclination_deg":98.2378,"raan_deg":55.2266,"arg_perigee_deg":157.8312,"mean_anomaly_deg":359.1148,"bstar":8.5891e-5,"rev_number":79375,"period_min":97.502990594461,"perigee_km":608.62441545526,"apogee_km":669.76925208242,"semimajor_km":7017.3338337688,"source":"CELESTRAK","updated_at":"2026-05-25T13:38:24.895061Z"}}}